Location: Sun City Center
(27.6996°N, 82.3528°W)
Time: 15:12:18
(UTC-04:00)

Cosmos 2084 Rocket - Visible Passes

Search period start: 26 March 2015 00:00
Search period end: 05 April 2015 00:00
Orbit: 532 x 660 km, 62.8° (Epoch: 26 March)

Date Brightness Start Highest point End Pass type
(mag) Time Alt. Az. Time Alt. Az. Time Alt. Az.
27 Mar 6.6 22:38:23 10° NNW 22:38:37 11° NNW 22:38:37 11° NNW visible
28 Mar 5.4 21:09:53 10° N 21:11:58 17° NE 21:11:58 17° NE visible
28 Mar 6.7 22:48:27 10° NW 22:48:38 11° NW 22:48:38 11° NW visible
29 Mar 4.6 21:18:49 10° N 21:22:05 31° NE 21:22:05 31° NE visible
30 Mar 3.6 21:28:13 10° NNW 21:32:18 63° NNE 21:32:18 63° NNE visible
31 Mar 3.9 21:37:59 10° NW 21:42:25 60° WSW 21:42:38 59° SW visible
01 Apr 5.0 20:09:07 10° N 20:12:29 21° NE 20:16:02 10° ESE visible
01 Apr 5.2 21:48:10 10° NW 21:52:07 29° WSW 21:53:07 27° SW visible
02 Apr 4.1 20:18:12 10° NNW 20:22:23 40° ENE 20:26:44 10° SE visible
02 Apr 6.2 21:59:07 10° WNW 22:01:47 15° WSW 22:03:44 12° SW visible
03 Apr 3.5 20:27:41 10° NNW 20:32:10 82° ENE 20:36:47 10° SSE visible
04 Apr 4.5 20:37:32 10° NW 20:41:53 48° WSW 20:46:19 10° S visible
